Location: Follega
(52.8850°N, 5.7362°E)
Time: 07:22:04
(UTC+00:00)

ERS-1 Rocket - Pass Details

Date: 07 October 2020
Orbit: 753 x 757 km, 98.5° (Epoch: 30 October)

Event Time Altitude Azimuth Distance (km) Brightness Sun altitude
Exits shadow 19:58:11 25° 29° (NNE) 1,518 4.5 -27.1°
Drops below altitude 10° 20:00:56 10° 1° (N) 2,301 5.8 -27.4°
Sets 20:03:29 0° 351° (N) 3,231 6.8 -27.8°
